When you browse on this site, cookies collect data to enhance your experience and personalize the content and advertising you see.
Visit our Privacy Policy to learn more. By continuing to use the site, you agree to this use of cookies and data.
  • In Czech Republic
  • List of Countries
  • For 7 days
  • Water Temperature
  • Satellite Maps
  • Weather Map
  • Weather Widgets
  • user-avatar
    Login

    Hourly Weather Villahermosa

    Today, 20 March, Wednesday

    Time Temperature Precipitation Wind Pressure Humidity
    00:00 +22°C° 0 mm 1 mps 762 mmHg 96%
    01:00 +22°C° 0.1 mm 1 mps 762 mmHg 96%
    02:00 +22°C° 0.1 mm 1 mps 761 mmHg 97%
    03:00 +22°C° 0.1 mm 1 mps 761 mmHg 97%
    04:00 +22°C° 0 mm 1 mps 761 mmHg 97%
    05:00 +22°C° 0 mm 1 mps 761 mmHg 97%
    06:00 +22°C° 0 mm 1 mps 761 mmHg 97%
    07:00 +23°C° 0.1 mm 1 mps 762 mmHg 93%
    08:00 +22°C° 0.1 mm 0 mps 762 mmHg 88%
    09:00 +24°C° 0.1 mm 0 mps 763 mmHg 84%
    10:00 +27°C° 0.5 mm 1 mps 762 mmHg 79%
    11:00 +28°C° 0.5 mm 1 mps 762 mmHg 75%
    12:00 +29°C° 0.5 mm 2 mps 762 mmHg 70%
    13:00 +29°C° 1.2 mm 2 mps 761 mmHg 74%
    14:00 +28°C° 1.2 mm 2 mps 760 mmHg 77%
    15:00 +28°C° 1.2 mm 2 mps 760 mmHg 80%
    16:00 +27°C° 0.8 mm 2 mps 760 mmHg 82%
    17:00 +26°C° 0.8 mm 2 mps 760 mmHg 84%
    18:00 +26°C° 0.8 mm 3 mps 760 mmHg 86%
    19:00 +25°C° 0.1 mm 2 mps 761 mmHg 88%
    20:00 +24°C° 0.1 mm 2 mps 761 mmHg 89%
    21:00 +23°C° 0.1 mm 2 mps 762 mmHg 91%
    22:00 +23°C° 0 mm 1 mps 762 mmHg 92%
    23:00 +23°C° 0 mm 1 mps 762 mmHg 92%

    Tomorrow, 21 March, Thursday

    Time Temperature Precipitation Wind Pressure Humidity
    00:00 +23°C° 0 mm 1 mps 762 mmHg 93%
    01:00 +22°C° 0 mm 1 mps 762 mmHg 94%
    02:00 +22°C° 0 mm 1 mps 762 mmHg 94%
    03:00 +22°C° 0 mm 1 mps 761 mmHg 95%
    04:00 +22°C° 0.1 mm 1 mps 762 mmHg 95%
    05:00 +22°C° 0.1 mm 1 mps 762 mmHg 95%
    06:00 +22°C° 0.1 mm 1 mps 762 mmHg 95%
    07:00 +24°C° 0.2 mm 2 mps 762 mmHg 91%
    08:00 +25°C° 0.2 mm 3 mps 763 mmHg 87%
    09:00 +26°C° 0.2 mm 4 mps 764 mmHg 84%
    10:00 +27°C° 1 mm 4 mps 763 mmHg 81%
    11:00 +28°C° 1 mm 4 mps 763 mmHg 79%
    12:00 +28°C° 1 mm 4 mps 762 mmHg 76%
    13:00 +28°C° 1 mm 3 mps 762 mmHg 78%
    14:00 +28°C° 1 mm 3 mps 761 mmHg 79%
    15:00 +27°C° 1 mm 2 mps 760 mmHg 81%
    16:00 +26°C° 0.2 mm 2 mps 761 mmHg 82%
    17:00 +26°C° 0.2 mm 2 mps 761 mmHg 82%
    18:00 +25°C° 0.2 mm 2 mps 761 mmHg 83%
    19:00 +24°C° 0 mm 2 mps 762 mmHg 85%
    20:00 +24°C° 0 mm 2 mps 762 mmHg 87%
    21:00 +23°C° 0 mm 2 mps 763 mmHg 89%
    22:00 +23°C° 0 mm 1 mps 763 mmHg 89%
    23:00 +23°C° 0 mm 1 mps 763 mmHg 88%

    Day after tomorrow, 22 March, Friday

    Time Temperature Precipitation Wind Pressure Humidity
    00:00 +23°C° 0 mm 1 mps 763 mmHg 88%
    01:00 +21°C° 0 mm 0 mps 762 mmHg 89%
    02:00 +20°C° 0 mm 0 mps 762 mmHg 90%
    03:00 +20°C° 0 mm 0 mps 761 mmHg 91%
    04:00 +20°C° 0 mm 0 mps 762 mmHg 91%
    05:00 +20°C° 0 mm 0 mps 762 mmHg 91%
    06:00 +20°C° 0 mm 0 mps 762 mmHg 92%
    07:00 +23°C° 0 mm 1 mps 763 mmHg 87%
    08:00 +25°C° 0 mm 2 mps 763 mmHg 82%
    09:00 +26°C° 0 mm 3 mps 764 mmHg 77%
    10:00 +27°C° 0 mm 3 mps 763 mmHg 73%
    11:00 +28°C° 0 mm 3 mps 763 mmHg 69%
    12:00 +29°C° 0 mm 3 mps 762 mmHg 65%
    13:00 +30°C° 0 mm 2 mps 761 mmHg 64%
    14:00 +30°C° 0 mm 2 mps 760 mmHg 63%
    15:00 +31°C° 0 mm 2 mps 760 mmHg 62%
    16:00 +30°C° 0.3 mm 2 mps 760 mmHg 68%
    17:00 +29°C° 0.3 mm 2 mps 760 mmHg 73%
    18:00 +28°C° 0.3 mm 2 mps 760 mmHg 79%
    19:00 +26°C° 0.1 mm 2 mps 760 mmHg 81%
    20:00 +25°C° 0.1 mm 2 mps 761 mmHg 84%
    21:00 +24°C° 0.1 mm 3 mps 761 mmHg 86%
    22:00 +24°C° 0 mm 2 mps 761 mmHg 87%
    23:00 +23°C° 0 mm 2 mps 761 mmHg 88%

    23 March, Saturday

    Time Temperature Precipitation Wind Pressure Humidity
    00:00 +23°C° 0 mm 2 mps 761 mmHg 89%
    01:00 +22°C° 0 mm 1 mps 760 mmHg 90%
    02:00 +22°C° 0 mm 1 mps 760 mmHg 91%
    03:00 +22°C° 0 mm 1 mps 759 mmHg 92%
    04:00 +22°C° 0 mm 1 mps 760 mmHg 93%
    05:00 +22°C° 0 mm 1 mps 760 mmHg 93%
    06:00 +19°C° 0 mm 0 mps 760 mmHg 93%
    07:00 +23°C° 0 mm 1 mps 760 mmHg 89%
    08:00 +24°C° 0 mm 1 mps 761 mmHg 84%
    09:00 +26°C° 0 mm 2 mps 761 mmHg 79%
    10:00 +27°C° 0 mm 2 mps 761 mmHg 75%
    11:00 +29°C° 0 mm 2 mps 760 mmHg 70%
    12:00 +31°C° 0 mm 3 mps 760 mmHg 65%
    13:00 +31°C° 0 mm 2 mps 759 mmHg 63%
    14:00 +32°C° 0 mm 2 mps 758 mmHg 60%
    15:00 +34°C° 0 mm 2 mps 757 mmHg 57%
    16:00 +32°C° 0 mm 2 mps 757 mmHg 62%
    17:00 +31°C° 0 mm 2 mps 758 mmHg 67%
    18:00 +30°C° 0 mm 1 mps 758 mmHg 71%
    19:00 +29°C° 0 mm 2 mps 758 mmHg 74%
    20:00 +28°C° 0 mm 2 mps 759 mmHg 76%
    21:00 +26°C° 0 mm 2 mps 760 mmHg 79%
    22:00 +26°C° 0 mm 2 mps 760 mmHg 82%
    23:00 +25°C° 0 mm 2 mps 760 mmHg 85%

    24 March, Sunday

    Time Temperature Precipitation Wind Pressure Humidity
    00:00 +25°C° 0 mm 2 mps 760 mmHg 87%
    01:00 +24°C° 0 mm 2 mps 759 mmHg 89%
    02:00 +24°C° 0 mm 1 mps 759 mmHg 90%
    03:00 +24°C° 0 mm 1 mps 758 mmHg 91%
    04:00 +23°C° 0 mm 1 mps 759 mmHg 91%
    05:00 +23°C° 0 mm 1 mps 759 mmHg 92%
    06:00 +23°C° 0 mm 1 mps 759 mmHg 92%
    07:00 +24°C° 0 mm 1 mps 760 mmHg 87%
    08:00 +26°C° 0 mm 2 mps 760 mmHg 83%
    09:00 +27°C° 0 mm 2 mps 761 mmHg 78%
    10:00 +29°C° 0 mm 2 mps 760 mmHg 74%
    11:00 +30°C° 0 mm 1 mps 759 mmHg 69%
    12:00 +32°C° 0 mm 1 mps 759 mmHg 64%
    13:00 +33°C° 0 mm 1 mps 758 mmHg 61%
    14:00 +33°C° 0 mm 1 mps 757 mmHg 58%
    15:00 +32°C° 0 mm 0 mps 756 mmHg 55%
    16:00 +33°C° 0 mm 1 mps 756 mmHg 60%
    17:00 +32°C° 0 mm 1 mps 757 mmHg 66%
    18:00 +31°C° 0 mm 1 mps 757 mmHg 71%
    19:00 +29°C° 0 mm 1 mps 757 mmHg 74%
    20:00 +28°C° 0 mm 1 mps 758 mmHg 77%
    21:00 +27°C° 0 mm 1 mps 758 mmHg 80%
    22:00 +26°C° 0 mm 2 mps 758 mmHg 81%
    23:00 +25°C° 0 mm 2 mps 758 mmHg 82%

    25 March, Monday

    Time Temperature Precipitation Wind Pressure Humidity
    00:00 +25°C° 0 mm 2 mps 758 mmHg 83%
    01:00 +24°C° 0 mm 2 mps 758 mmHg 85%
    02:00 +24°C° 0 mm 1 mps 757 mmHg 88%
    03:00 +24°C° 0 mm 1 mps 757 mmHg 90%
    04:00 +23°C° 0 mm 1 mps 757 mmHg 91%
    05:00 +23°C° 0 mm 1 mps 757 mmHg 91%
    06:00 +23°C° 0 mm 1 mps 758 mmHg 92%
    07:00 +24°C° 0 mm 1 mps 758 mmHg 85%
    08:00 +26°C° 0 mm 1 mps 758 mmHg 79%
    09:00 +28°C° 0 mm 2 mps 759 mmHg 73%
    10:00 +30°C° 0 mm 2 mps 758 mmHg 67%
    11:00 +31°C° 0 mm 2 mps 758 mmHg 62%
    12:00 +34°C° 0 mm 2 mps 757 mmHg 56%
    13:00 +35°C° 0 mm 2 mps 757 mmHg 52%
    14:00 +35°C° 0 mm 1 mps 756 mmHg 49%
    15:00 +36°C° 0 mm 1 mps 755 mmHg 45%
    16:00 +34°C° 0 mm 1 mps 755 mmHg 52%
    17:00 +32°C° 0 mm 2 mps 756 mmHg 59%
    18:00 +31°C° 0 mm 2 mps 756 mmHg 66%
    19:00 +29°C° 0 mm 2 mps 757 mmHg 68%
    20:00 +28°C° 0 mm 2 mps 757 mmHg 70%
    21:00 +27°C° 0 mm 1 mps 758 mmHg 71%
    22:00 +26°C° 0 mm 1 mps 758 mmHg 72%
    23:00 +25°C° 0 mm 1 mps 758 mmHg 73%
    Show more